556  
ASUS44 KMOB 130015  
RWRMOB  
REGIONAL WEATHER ROUNDUP  
NATIONAL WEATHER SERVICE MOBILE AL  
700 PM CDT WED AUG 12 2020  
 
NOTE: "FAIR" INDICATES FEW OR NO CLOUDS BELOW 12,000 FEET WITH NO  
SIGNIFICANT WEATHER AND/OR S TO VISIBILITY
.  
 
* THESE STATIONS ARE PART OF THE UNIVERSITY OF SOUTH ALABAMA  
MESONET AND ARE NOT UNDER NWS OR FAA QUALITY CONTROL.
 
 
ALZ061>064-130100-  
COASTAL ALABAMA  
 
CITY SKY/WX TMP DP RH WIND PRES REMARKS
 
MOBILE REG APT CLOUDY 78 76 93 W8G16 30.02R  
6HR MIN TEMP: 78; 6HR MAX TEMP: 93; 6HR PCP: TRACE;  
 
BROOKLEY FIELD MOCLDY 86 77 74 VRB5 30.01R HX 97  
6HR MIN TEMP: 86; 6HR MAX TEMP: 94;  
 
USA CAMPUS* N/A 81 77 89 W7 N/A  
DOG RIVER* N/A 37 32 81 W6 30.01R  
 
 
CITY SKY/WX TMP DP RH WIND PRES REMARKS
 
GULF SHORES PTCLDY 83 76 78 SE5 29.98F  
 

 
 
ALZ051>060-130100-  
INTERIOR SOUTHWEST AND SOUTH CENTRAL ALABAMA  
 
CITY SKY/WX TMP DP RH WIND PRES REMARKS
 
GREENVILLE PTCLDY 91 66 43 SW5 29.98R  
6HR MIN TEMP: 91; 6HR MAX TEMP: 97;  
 
EVERGREEN PTCLDY 90 72 55 S5 29.97R HX 97  
6HR MIN TEMP: 90; 6HR MAX TEMP: 95;  
 
ATMORE* N/A 86 75 70 SW2 29.99R HX 95  
ANDALUSIA/OPP MOCLDY 91 75 59 CALM 29.97R THUNDER HX 101  
6HR MIN TEMP: 86; 6HR MAX TEMP: 99; 6HR PCP: TRACE;  
 
ANDALUSIA* N/A 82 77 83 E7 29.98S  
FLORALA APT NOT AVBL  
FLORALA* N/A 84 73 70 S9 29.99R  
 

 
 
FLZ001>006-130100-  
WESTERN FLORIDA PANHANDLE  
 
CITY SKY/WX TMP DP RH WIND PRES REMARKS
 
PENSACOLA N/A N/A N/A N/A MISG N/A  
NAS PENSACOLA CLOUDY 84 75 74 SW6 29.98R  
6HR MIN TEMP: 84; 6HR MAX TEMP: 90;  
 
MILTON MOCLDY 83 75 77 SW7 29.98R  
6HR MIN TEMP: 83; 6HR MAX TEMP: 91;  
 
WHTNG S FIELD PTCLDY 84 76 76 S6 29.98R  
6HR MIN TEMP: 84; 6HR MAX TEMP: 93;  
 
 
CITY SKY/WX TMP DP RH WIND PRES REMARKS
 
JAY* N/A 82 77 83 S6 29.99R  
DUKE FIELD CLEAR 84 72 65 S8 29.98R  
CRESTVIEW PTCLDY 86 76 71 SW7 29.99R HX 96  
6HR MIN TEMP: 86; 6HR MAX TEMP: 95;  
 
VALPARAISO MOCLDY 84 75 73 SW7 29.98R  
6HR MIN TEMP: 84; 6HR MAX TEMP: 90;  
 
DESTIN CLEAR 86 75 69 VRB3 29.98R HX 95  
6HR MIN TEMP: 86; 6HR MAX TEMP: 89;  
 

 
 
MSZ076-079-130100-  
INTERIOR SOUTHEAST MISSISSIPPI  
 
CITY SKY/WX TMP DP RH WIND PRES REMARKS
 
LEAKESVILLE* N/A 73 73 100 S2 30.02  
AGRICOLA* N/A 73 73 100 CALM 30.02  
 

 
 
MARINE OBSERVATIONS  
 
STATION/POSITION TIME TEMP WIND PRES WAVE
 
AIR SEA DIR/SP/G HT/PER  
(UTC) (F) (DEG/KT/KT) (MB) (FT/S)  
PETIT BOIS ISLND 2330 85 230/ 6/ 7 1015.8R  
GRAND BAY 2230 85 190/ 9 1016.0R  
KATRINA CUT 2330 230/ 7 1015.6R  
CEDAR POINT 2330 85 200/ 8 1015.6R  
E DAUPHIN ISLAND 2200 84 180/ 12/ 14 1014.8R  
MIDDLE BAY LIGHT 2330 85 180/ 10 1014.6R  
USCG MOBILE BAY 2324 88 230/ 3/ 8 1015.6  
STATE DOCKS 2330 86 88 1015.3F  
MEAHER PARK 2330 85 200/ 10 1014.9S  
WEEKS BAY 2245 87 1015.0R  
FORT MORGAN 2330 84 220/ 7/ 8 1015.4R  
12 S ORANGE BCH 2350 84 230/ 6/ 8 1015.5R 1/ 4  
PENSACOLA BAY 2330 85 89 180/ 5/ 8 1015.6R  
64 S DAUPHIN ISL 2350 85 250/ 4/ 6 1015.7R 1/ 3  
 

 
 
SELECTED LOCATIONS ACROSS THE REGION  
 
CITY SKY/WX TMP DP RH WIND PRES REMARKS
 
NEW ORLEANS CLOUDY 81 74 79 W5 29.98S  
GULFPORT CLOUDY 82 71 69 N5 29.98S  
PASCAGOULA AP CLOUDY 81 73 76 N10G21 30.00R  
PASCAGOULA* N/A 84 79 84 CALM 29.99 HX 96  
HATTIESBURG CLOUDY 76 71 85 SE5 29.99F  
LAUREL CLOUDY 76 75 97 S3 30.00S  
MERIDIAN CLOUDY 81 73 76 NW5 29.99R  
JACKSON MOCLDY 85 72 65 SE7 29.96F  
MONTGOMERY MOCLDY 87 73 62 NE13G22 29.99R  
TROY MOCLDY 91 71 51 CALM 29.98R HX 97  
ASHFORD* N/A 82 77 83 E7 29.98S  
DOTHAN PTCLDY 89 71 55 SW6 30.00R HX 95  
PANAMA CITY PTCLDY 84 78 82 S8 29.97R HX 95  
 

 
 
 
 
CLICK HERE TO GO TO PREVIOUS BULLETINS.

The Nexlab AL Page
The Nexlab FL Page
The Nexlab MS Page Main Text Page